Orbital Elements at Epoch 2459200.5 (2020-Dec-17.0) TDB
Reference: JPL 22 (heliocentric ecliptic J2000)
Element | Value | Uncertainty (1-sigma) | Units |
e | .1717120610748433 | 3.0755e-08 | |
a | 2.380947036901222 | 7.4269e-09 | au |
q | 1.972109713884872 | 7.2058e-08 | au |
i | 1.486546398985529 | 3.4925e-06 | deg |
node | 283.8321305806332 | 0.0001284 | deg |
peri | 161.8019531961941 | 0.00012886 | deg |
M | 217.6580528519775 | 1.0697e-05 | deg |
tp | 2459731.083121893919 (2022-May-31.58312189) | 4.096e-05 | TDB |
period | 1341.908887077244 3.67 | 6.2787e-06 1.719e-08 | d yr |
n | .2682745478972877 | 1.2552e-09 | deg/d |
Q | 2.789784359917571 | 8.7022e-09 | au |
|
| | Orbit Determination Parameters
Additional Information
|